DEMPY EDNY-EDNY

Flight info

Callsign DEMPY
Flight time 1h 25m
Altitude
Route
Aircraft DV20

Departure

Time 2026-04-28 14:46
Airport Bodensee Airport Friedrichshafen (EDNY)

Arrival

Time 2026-04-28 16:11
Airport Bodensee Airport Friedrichshafen (EDNY)
Time Latitude Longitude Altitude Speed Heading
2026-04-28 14:46 47.73386 9.37941 4113 ft 112 kts 298°
2026-04-28 14:46 47.73716 9.36852 4192 ft 115 kts 295°
2026-04-28 14:46 47.73962 9.35804 4352 ft 106 kts 294°
2026-04-28 14:46 47.74189 9.34718 4345 ft 114 kts 294°
2026-04-28 14:47 47.74541 9.33683 4378 ft 111 kts 307°
2026-04-28 14:47 47.74950 9.32717 4408 ft 113 kts 309°
2026-04-28 14:47 47.75396 9.31726 4438 ft 115 kts 308°
2026-04-28 14:47 47.75853 9.30774 4507 ft 113 kts 313°
2026-04-28 14:48 47.76357 9.29898 4618 ft 110 kts 314°
2026-04-28 14:48 47.76811 9.28986 4721 ft 111 kts 309°
2026-04-28 14:48 47.77257 9.28025 4755 ft 113 kts 310°
2026-04-28 14:48 47.77725 9.27067 4800 ft 114 kts 312°
2026-04-28 14:49 47.78240 9.26168 4820 ft 113 kts 316°
2026-04-28 14:49 47.78810 9.25392 4846 ft 112 kts 333°
2026-04-28 14:49 47.79488 9.24823 4845 ft 112 kts 338°
2026-04-28 14:49 47.80189 9.24275 4851 ft 116 kts 335°
2026-04-28 14:50 47.80896 9.23700 4825 ft 117 kts 338°
2026-04-28 14:50 47.81595 9.23121 4879 ft 113 kts 336°
2026-04-28 14:50 47.82293 9.22574 4881 ft 114 kts 339°
2026-04-28 14:50 47.83009 9.22053 4866 ft 114 kts 339°
2026-04-28 14:51 47.83727 9.21566 4865 ft 113 kts 341°
2026-04-28 14:51 47.84434 9.21026 4852 ft 116 kts 332°
2026-04-28 14:51 47.85094 9.20349 4841 ft 116 kts 328°
2026-04-28 14:51 47.85687 9.19524 4867 ft 118 kts 311°
2026-04-28 14:52 47.86088 9.18424 4889 ft 123 kts 300°
2026-04-28 14:52 47.86504 9.17355 5010 ft 114 kts 309°
2026-04-28 14:52 47.86932 9.16376 5124 ft 112 kts 310°
2026-04-28 14:52 47.87387 9.15382 5049 ft 118 kts 311°
2026-04-28 14:53 47.87849 9.14370 5125 ft 118 kts 307°
2026-04-28 14:53 47.88310 9.13327 5113 ft 122 kts 310°
2026-04-28 14:53 47.88795 9.12288 5064 ft 121 kts 312°
2026-04-28 14:53 47.89292 9.11287 5066 ft 120 kts 315°
2026-04-28 14:54 47.89798 9.10311 5041 ft 119 kts 314°
2026-04-28 14:54 47.90312 9.09328 4997 ft 121 kts 314°
2026-04-28 14:54 47.90837 9.08314 4896 ft 125 kts 316°
2026-04-28 14:54 47.91437 9.07418 4902 ft 114 kts 327°
2026-04-28 14:55 47.92045 9.06650 4847 ft 117 kts 328°
2026-04-28 14:55 47.92683 9.05909 4849 ft 113 kts 329°
2026-04-28 14:55 47.93298 9.05264 4911 ft 107 kts 336°
2026-04-28 14:55 47.93965 9.04685 4822 ft 116 kts 332°
2026-04-28 14:56 47.94579 9.03878 4761 ft 119 kts 318°
2026-04-28 14:56 47.95066 9.02919 4827 ft 113 kts 310°
2026-04-28 14:56 47.95508 9.01906 4828 ft 118 kts 309°
2026-04-28 14:56 47.95952 9.00923 4891 ft 116 kts 311°
2026-04-28 14:57 47.96460 8.99975 4937 ft 118 kts 317°
2026-04-28 14:57 47.96821 8.99341 4932 ft 118 kts 318°
2026-04-28 14:57 47.97519 8.98132 5039 ft 115 kts 317°
2026-04-28 14:57 47.98055 8.97254 5072 ft 115 kts 317°
2026-04-28 14:58 47.98602 8.96378 5129 ft 114 kts 322°
2026-04-28 14:58 47.99162 8.95511 5114 ft 118 kts 321°
2026-04-28 14:58 47.99751 8.94636 5189 ft 118 kts 322°
2026-04-28 14:58 48.00362 8.93854 5176 ft 117 kts 324°
2026-04-28 14:59 48.00986 8.93032 5108 ft 121 kts 322°
2026-04-28 14:59 48.01605 8.92160 5088 ft 124 kts 317°
2026-04-28 14:59 48.02164 8.91143 5055 ft 127 kts 312°
2026-04-28 14:59 48.02706 8.90101 4984 ft 126 kts 311°
2026-04-28 15:00 48.03231 8.89075 4951 ft 123 kts 312°
2026-04-28 15:00 48.03772 8.88042 4953 ft 126 kts 315°
2026-04-28 15:00 48.04332 8.87067 4867 ft 121 kts 317°
2026-04-28 15:00 48.04891 8.86180 4948 ft 114 kts 319°
2026-04-28 15:01 48.05433 8.85300 4992 ft 116 kts 317°
2026-04-28 15:01 48.05999 8.84419 5025 ft 117 kts 319°
2026-04-28 15:01 48.06584 8.83566 5050 ft 122 kts 321°
2026-04-28 15:01 48.07205 8.82671 5070 ft 125 kts 321°
2026-04-28 15:02 48.07843 8.81824 5127 ft 120 kts 322°
2026-04-28 15:02 48.08431 8.80930 5099 ft 121 kts 316°
2026-04-28 15:02 48.08993 8.79992 5027 ft 121 kts 315°
2026-04-28 15:02 48.09528 8.79002 4944 ft 123 kts 311°
2026-04-28 15:03 48.10059 8.77980 4856 ft 124 kts 311°
2026-04-28 15:03 48.10568 8.76979 4857 ft 118 kts 311°
2026-04-28 15:03 48.11033 8.75987 4954 ft 117 kts 310°
2026-04-28 15:03 48.11481 8.74966 4950 ft 116 kts 309°
2026-04-28 15:04 48.11919 8.73947 4999 ft 118 kts 308°
2026-04-28 15:04 48.12371 8.72896 5008 ft 121 kts 310°
2026-04-28 15:04 48.12843 8.71853 4964 ft 123 kts 310°
2026-04-28 15:04 48.13365 8.70833 4949 ft 124 kts 317°
2026-04-28 15:05 48.13931 8.69847 4876 ft 126 kts 316°
2026-04-28 15:05 48.14497 8.68844 4825 ft 127 kts 316°
2026-04-28 15:05 48.15056 8.67845 4872 ft 119 kts 315°
2026-04-28 15:05 48.15605 8.66896 4841 ft 119 kts 325°
2026-04-28 15:06 48.16301 8.66331 4902 ft 113 kts 341°
2026-04-28 15:06 48.17001 8.65796 4905 ft 118 kts 336°
2026-04-28 15:06 48.17702 8.65044 4720 ft 130 kts 327°
2026-04-28 15:06 48.18377 8.64145 4666 ft 128 kts 324°
2026-04-28 15:07 48.19021 8.63222 4592 ft 130 kts 322°
2026-04-28 15:07 48.19656 8.62297 4572 ft 126 kts 323°
2026-04-28 15:07 48.20291 8.61383 4534 ft 124 kts 323°
2026-04-28 15:07 48.20910 8.60519 4519 ft 123 kts 323°
2026-04-28 15:08 48.21520 8.59634 4562 ft 119 kts 322°
2026-04-28 15:08 48.22130 8.58765 4568 ft 123 kts 322°
2026-04-28 15:08 48.22750 8.57856 4475 ft 125 kts 322°
2026-04-28 15:08 48.23358 8.56898 4350 ft 129 kts 316°
2026-04-28 15:09 48.23955 8.55892 4347 ft 126 kts 317°
2026-04-28 15:09 48.24523 8.54906 4395 ft 124 kts 314°
2026-04-28 15:09 48.25067 8.53909 4473 ft 124 kts 315°
2026-04-28 15:09 48.25446 8.53271 4451 ft 125 kts 317°
2026-04-28 15:10 48.26370 8.52156 4296 ft 125 kts 340°
2026-04-28 15:10 48.27159 8.51683 4162 ft 128 kts 347°
2026-04-28 15:10 48.27987 8.51210 4026 ft 126 kts 345°
2026-04-28 15:10 48.28792 8.50777 4038 ft 116 kts 349°
2026-04-28 15:11 48.29490 8.50445 3967 ft 99 kts 349°
2026-04-28 15:11 48.30115 8.50096 3829 ft 95 kts 344°
2026-04-28 15:11 48.30656 8.49509 3695 ft 97 kts 320°
2026-04-28 15:11 48.31042 8.48736 3594 ft 90 kts 302°
2026-04-28 15:12 48.31245 8.47847 3498 ft 89 kts 281°
2026-04-28 15:12 48.31250 8.46914 3470 ft 90 kts 266°
2026-04-28 15:12 48.31203 8.45995 3400 ft 87 kts 265°
2026-04-28 15:12 48.31147 8.45107 3353 ft 83 kts 267°
2026-04-28 15:13 48.31084 8.44220 3290 ft 87 kts 258°
2026-04-28 15:13 48.30923 8.43332 3227 ft 91 kts 249°
2026-04-28 15:13 48.30714 8.42435 3228 ft 89 kts 242°
2026-04-28 15:13 48.30410 8.41650 3176 ft 84 kts 221°
2026-04-28 15:14 48.29923 8.41233 3049 ft 82 kts 181°
2026-04-28 15:14 48.29356 8.41353 2794 ft 81 kts 143°
2026-04-28 15:14 48.28905 8.41763 2574 ft 75 kts 138°
2026-04-28 15:14 48.28478 8.42210 2300 ft 72 kts 134°
2026-04-28 15:15 48.28119 8.42604 2217 ft 56 kts 131°
2026-04-28 15:15 48.27956 8.42829 2218 ft 49 kts 141°
2026-04-28 15:15 48.27461 8.43352 2400 ft 64 kts 129°
2026-04-28 15:15 48.27252 8.43894 2574 ft 65 kts 95°
2026-04-28 15:16 48.27473 8.44509 2799 ft 72 kts 55°
2026-04-28 15:16 48.27894 8.44986 2955 ft 85 kts 19°
2026-04-28 15:16 48.28501 8.44789 3020 ft 96 kts 341°
2026-04-28 15:16 48.29061 8.44157 2983 ft 104 kts 325°
2026-04-28 15:17 48.29588 8.43428 2961 ft 101 kts 327°
2026-04-28 15:17 48.30102 8.42808 2957 ft 88 kts 313°
2026-04-28 15:17 48.30134 8.41901 2853 ft 91 kts 247°
2026-04-28 15:17 48.29792 8.41213 2807 ft 75 kts 190°
2026-04-28 15:18 48.29329 8.41329 2713 ft 69 kts 142°
2026-04-28 15:18 48.28938 8.41719 2544 ft 66 kts 139°
2026-04-28 15:18 48.28564 8.42100 2379 ft 63 kts 133°
2026-04-28 15:18 48.28226 8.42491 2230 ft 58 kts 139°
2026-04-28 15:19 48.27960 8.42805 2217 ft 40 kts 143°
2026-04-28 15:19 48.27648 8.43119 2269 ft 66 kts 140°
2026-04-28 15:19 48.27267 8.43492 2471 ft 62 kts 133°
2026-04-28 15:19 48.26918 8.43903 2672 ft 66 kts 122°
2026-04-28 15:20 48.26913 8.44556 2874 ft 68 kts 65°
2026-04-28 15:20 48.27272 8.45114 3033 ft 80 kts 43°
2026-04-28 15:20 48.27857 8.45034 3134 ft 100 kts 336°
2026-04-28 15:20 48.28412 8.44332 3153 ft 108 kts 321°
2026-04-28 15:21 48.28864 8.43566 3051 ft 91 kts 320°
2026-04-28 15:21 48.29329 8.43036 2916 ft 82 kts 343°
2026-04-28 15:21 48.29775 8.42543 2805 ft 83 kts 293°
2026-04-28 15:21 48.29773 8.41950 2735 ft 91 kts 244°
2026-04-28 15:22 48.29314 8.41539 2669 ft 77 kts 164°
2026-04-28 15:22 48.28710 8.41965 2407 ft 68 kts 137°
2026-04-28 15:22 48.28343 8.42363 2262 ft 63 kts 138°
2026-04-28 15:22 48.28118 8.42609 2217 ft 54 kts 137°
2026-04-28 15:23 48.27828 8.42931 2222 ft 63 kts 143°
2026-04-28 15:23 48.27439 8.43326 2353 ft 69 kts 136°
2026-04-28 15:23 48.27049 8.43641 2587 ft 66 kts 162°
2026-04-28 15:23 48.26562 8.43554 2793 ft 78 kts 192°
2026-04-28 15:24 48.26020 8.43230 2947 ft 86 kts 192°
2026-04-28 15:24 48.25442 8.42983 3102 ft 88 kts 182°
2026-04-28 15:24 48.24869 8.42794 3259 ft 87 kts 180°
2026-04-28 15:24 48.24262 8.42608 3372 ft 91 kts 181°
2026-04-28 15:25 48.23624 8.42416 3509 ft 96 kts 181°
2026-04-28 15:25 48.22940 8.42223 3594 ft 104 kts 183°
2026-04-28 15:25 48.22217 8.42039 3651 ft 107 kts 181°
2026-04-28 15:25 48.21464 8.41890 3711 ft 111 kts 179°
2026-04-28 15:26 48.20703 8.41738 3710 ft 110 kts 177°
2026-04-28 15:26 48.19933 8.41622 3719 ft 113 kts 175°
2026-04-28 15:26 48.19155 8.41544 3721 ft 112 kts 173°
2026-04-28 15:26 48.18375 8.41528 3773 ft 112 kts 170°
2026-04-28 15:27 48.17592 8.41602 3820 ft 112 kts 166°
2026-04-28 15:27 48.16817 8.41735 3834 ft 114 kts 168°
2026-04-28 15:27 48.16028 8.41620 3912 ft 116 kts 179°
2026-04-28 15:27 48.15219 8.41496 3920 ft 117 kts 176°
2026-04-28 15:28 48.14414 8.41360 3909 ft 117 kts 178°
2026-04-28 15:28 48.13597 8.41161 3908 ft 118 kts 183°
2026-04-28 15:28 48.12788 8.40963 3879 ft 117 kts 181°
2026-04-28 15:28 48.11986 8.40835 3895 ft 113 kts 178°
2026-04-28 15:29 48.11192 8.40756 3844 ft 116 kts 179°
2026-04-28 15:29 48.10398 8.40691 3871 ft 110 kts 175°
2026-04-28 15:29 48.09626 8.40628 3874 ft 113 kts 179°
2026-04-28 15:29 48.08850 8.40518 3900 ft 112 kts 180°
2026-04-28 15:30 48.08069 8.40418 3880 ft 113 kts 180°
2026-04-28 15:30 48.07289 8.40277 3894 ft 112 kts 183°
2026-04-28 15:30 48.06528 8.40008 3933 ft 112 kts 189°
2026-04-28 15:30 48.05753 8.39721 3866 ft 118 kts 185°
2026-04-28 15:31 48.04957 8.39528 3915 ft 113 kts 179°
2026-04-28 15:31 48.04176 8.39428 3944 ft 112 kts 176°
2026-04-28 15:31 48.03389 8.39373 3923 ft 113 kts 176°
2026-04-28 15:31 48.02614 8.39348 3935 ft 110 kts 172°
2026-04-28 15:32 48.01847 8.39381 3933 ft 111 kts 169°
2026-04-28 15:32 48.01082 8.39453 3972 ft 110 kts 169°
2026-04-28 15:32 48.00318 8.39566 4005 ft 110 kts 167°
2026-04-28 15:32 47.99555 8.39697 4017 ft 111 kts 167°
2026-04-28 15:33 47.98777 8.39808 4012 ft 113 kts 169°
2026-04-28 15:33 47.97995 8.39893 3909 ft 116 kts 168°
2026-04-28 15:33 47.97323 8.40349 3839 ft 106 kts 117°
2026-04-28 15:33 47.97222 8.41436 3757 ft 103 kts 94°
2026-04-28 15:34 47.97152 8.42541 3566 ft 110 kts 95°
2026-04-28 15:34 47.97140 8.43634 3577 ft 103 kts 90°
2026-04-28 15:34 47.97147 8.44663 3666 ft 93 kts 92°
2026-04-28 15:34 47.97145 8.45611 3576 ft 87 kts 88°
2026-04-28 15:35 47.97176 8.46484 3484 ft 84 kts 88°
2026-04-28 15:35 47.97183 8.48309 3192 ft 87 kts 93°
2026-04-28 15:35 47.97188 8.49144 3050 ft 73 kts 86°
2026-04-28 15:36 47.97185 8.49818 2965 ft 63 kts 98°
2026-04-28 15:36 47.97038 8.50464 2819 ft 65 kts 116°
2026-04-28 15:36 47.96761 8.50982 2721 ft 63 kts 130°
2026-04-28 15:36 47.96483 8.51495 2567 ft 61 kts 105°
2026-04-28 15:37 47.96555 8.52085 2363 ft 65 kts 44°
2026-04-28 15:37 47.97006 8.52219 2226 ft 64 kts
2026-04-28 15:37 47.97379 8.52230 2225 ft 51 kts 351°
2026-04-28 15:37 47.97836 8.52193 2305 ft 74 kts
2026-04-28 15:38 47.98358 8.52238 2514 ft 74 kts 11°
2026-04-28 15:38 47.98822 8.51937 2691 ft 95 kts 293°
2026-04-28 15:38 47.98942 8.50953 2985 ft 92 kts 276°
2026-04-28 15:38 47.98531 8.50324 3021 ft 103 kts 182°
2026-04-28 15:39 47.97835 8.50477 3006 ft 92 kts 159°
2026-04-28 15:39 47.97304 8.50658 3006 ft 65 kts 161°
2026-04-28 15:39 47.96866 8.50810 2941 ft 64 kts 158°
2026-04-28 15:39 47.96446 8.50914 2935 ft 64 kts 162°
2026-04-28 15:40 47.96138 8.51288 2840 ft 57 kts 111°
2026-04-28 15:40 47.96144 8.51878 2654 ft 61 kts 61°
2026-04-28 15:40 47.96527 8.52249 2325 ft 74 kts
2026-04-28 15:40 47.96987 8.52231 2233 ft 55 kts
2026-04-28 15:41 47.97300 8.52234 2230 ft 38 kts 358°
2026-04-28 15:41 47.97687 8.52206 2269 ft 69 kts
2026-04-28 15:41 47.98180 8.52197 2435 ft 73 kts
2026-04-28 15:41 47.98683 8.52247 2619 ft 76 kts 12°
2026-04-28 15:42 47.99187 8.51931 2887 ft 89 kts 322°
2026-04-28 15:42 47.99434 8.51044 3100 ft 102 kts 274°
2026-04-28 15:42 47.99130 8.50108 3217 ft 99 kts 204°
2026-04-28 15:42 47.98474 8.50004 3348 ft 95 kts 163°
2026-04-28 15:43 47.97928 8.50542 3380 ft 99 kts 121°
2026-04-28 15:43 47.97629 8.51471 3443 ft 100 kts 111°
2026-04-28 15:43 47.97392 8.52428 3502 ft 99 kts 107°
2026-04-28 15:43 47.97177 8.53434 3499 ft 104 kts 104°
2026-04-28 15:44 47.96948 8.54435 3585 ft 97 kts 108°
2026-04-28 15:44 47.96666 8.55334 3726 ft 95 kts 113°
2026-04-28 15:44 47.96378 8.56217 3863 ft 96 kts 115°
2026-04-28 15:44 47.96027 8.57082 3916 ft 99 kts 116°
2026-04-28 15:45 47.95687 8.57973 4049 ft 98 kts 115°
2026-04-28 15:45 47.95353 8.58862 4150 ft 99 kts 117°
2026-04-28 15:45 47.95019 8.59748 4228 ft 97 kts 116°
2026-04-28 15:45 47.94676 8.60637 4264 ft 101 kts 118°
2026-04-28 15:46 47.94303 8.61548 4297 ft 103 kts 118°
2026-04-28 15:46 47.93934 8.62445 4336 ft 103 kts 120°
2026-04-28 15:46 47.93555 8.63353 4318 ft 103 kts 118°
2026-04-28 15:46 47.93180 8.64258 4326 ft 102 kts 118°
2026-04-28 15:47 47.92769 8.65114 4396 ft 99 kts 122°
2026-04-28 15:47 47.92355 8.65946 4470 ft 100 kts 122°
2026-04-28 15:47 47.91953 8.66787 4512 ft 102 kts 121°
2026-04-28 15:47 47.91545 8.67677 4507 ft 105 kts 121°
2026-04-28 15:48 47.91124 8.68575 4459 ft 106 kts 118°
2026-04-28 15:48 47.90727 8.69503 4441 ft 107 kts 118°
2026-04-28 15:48 47.90338 8.70453 4434 ft 109 kts 118°
2026-04-28 15:48 47.89941 8.71439 4375 ft 111 kts 118°
2026-04-28 15:49 47.89541 8.72408 4351 ft 109 kts 117°
2026-04-28 15:49 47.89147 8.73356 4370 ft 105 kts 118°
2026-04-28 15:49 47.88775 8.74280 4426 ft 103 kts 117°
2026-04-28 15:49 47.88396 8.75196 4426 ft 105 kts 118°
2026-04-28 15:50 47.88022 8.76140 4456 ft 104 kts 116°
2026-04-28 15:50 47.87676 8.77084 4468 ft 104 kts 117°
2026-04-28 15:50 47.87323 8.78046 4409 ft 108 kts 115°
2026-04-28 15:50 47.86961 8.79034 4346 ft 108 kts 116°
2026-04-28 15:51 47.86614 8.80006 4330 ft 106 kts 115°
2026-04-28 15:51 47.86291 8.80985 4400 ft 103 kts 113°
2026-04-28 15:51 47.86006 8.81949 4443 ft 101 kts 110°
2026-04-28 15:51 47.85749 8.82912 4412 ft 103 kts 109°
2026-04-28 15:52 47.85492 8.83927 4379 ft 103 kts 109°
2026-04-28 15:52 47.85227 8.84900 4402 ft 101 kts 112°
2026-04-28 15:52 47.84964 8.85893 4398 ft 104 kts 109°
2026-04-28 15:52 47.84707 8.86903 4416 ft 104 kts 110°
2026-04-28 15:53 47.84433 8.87903 4406 ft 105 kts 111°
2026-04-28 15:53 47.84133 8.88914 4343 ft 107 kts 113°
2026-04-28 15:53 47.83813 8.89915 4281 ft 107 kts 111°
2026-04-28 15:53 47.83484 8.90913 4226 ft 107 kts 111°
2026-04-28 15:54 47.83179 8.91926 4199 ft 106 kts 109°
2026-04-28 15:54 47.82886 8.92949 4140 ft 108 kts 110°
2026-04-28 15:54 47.82607 8.93992 4093 ft 110 kts 108°
2026-04-28 15:54 47.82302 8.95041 4067 ft 109 kts 111°
2026-04-28 15:55 47.82007 8.96046 4109 ft 102 kts 104°
2026-04-28 15:55 47.81816 8.97087 4079 ft 105 kts 100°
2026-04-28 15:55 47.81659 8.98145 4027 ft 107 kts 98°
2026-04-28 15:55 47.81503 8.99206 4020 ft 102 kts 100°
2026-04-28 15:56 47.81345 9.00250 3999 ft 105 kts 99°
2026-04-28 15:56 47.81193 9.01335 3884 ft 111 kts 99°
2026-04-28 15:56 47.81008 9.02454 3842 ft 108 kts 108°
2026-04-28 15:56 47.80679 9.03451 3768 ft 107 kts 114°
2026-04-28 15:57 47.80316 9.04455 3586 ft 112 kts 114°
2026-04-28 15:57 47.79931 9.05484 3426 ft 115 kts 116°
2026-04-28 15:57 47.79515 9.06503 3347 ft 113 kts 117°
2026-04-28 15:57 47.79108 9.07465 3345 ft 108 kts 118°
2026-04-28 15:58 47.78700 9.08397 3326 ft 107 kts 120°
2026-04-28 15:58 47.78293 9.09316 3291 ft 107 kts 120°
2026-04-28 15:58 47.77890 9.10242 3262 ft 106 kts 120°
2026-04-28 15:58 47.77481 9.11146 3239 ft 104 kts 122°
2026-04-28 15:59 47.77061 9.12030 3200 ft 103 kts 120°
2026-04-28 15:59 47.76803 9.12610 3199 ft 101 kts 119°
2026-04-28 15:59 47.76297 9.13766 3194 ft 100 kts 119°
2026-04-28 15:59 47.75919 9.14625 3222 ft 99 kts 118°
2026-04-28 16:00 47.75533 9.15481 3221 ft 100 kts 117°
2026-04-28 16:00 47.75144 9.16353 3205 ft 103 kts 118°
2026-04-28 16:00 47.74714 9.17225 3167 ft 105 kts 121°
2026-04-28 16:00 47.74304 9.18163 3061 ft 111 kts 114°
2026-04-28 16:01 47.74031 9.19214 3023 ft 108 kts 102°
2026-04-28 16:01 47.73846 9.20307 2943 ft 111 kts 101°
2026-04-28 16:01 47.73670 9.21412 2917 ft 106 kts 100°
2026-04-28 16:01 47.73528 9.22481 2864 ft 106 kts 96°
2026-04-28 16:02 47.73436 9.23549 2850 ft 103 kts 94°
2026-04-28 16:02 47.73367 9.24599 2912 ft 100 kts 94°
2026-04-28 16:02 47.73305 9.25630 3001 ft 100 kts 93°
2026-04-28 16:02 47.73232 9.26685 2970 ft 107 kts 94°
2026-04-28 16:03 47.73151 9.27797 2904 ft 108 kts 94°
2026-04-28 16:03 47.73062 9.28885 2881 ft 103 kts 93°
2026-04-28 16:03 47.72982 9.29928 2833 ft 101 kts 93°
2026-04-28 16:03 47.72871 9.30956 2822 ft 101 kts 95°
2026-04-28 16:04 47.72758 9.31978 2847 ft 102 kts 95°
2026-04-28 16:04 47.72646 9.33045 2832 ft 106 kts 95°
2026-04-28 16:04 47.72510 9.34129 2760 ft 107 kts 94°
2026-04-28 16:04 47.72435 9.34851 2757 ft 105 kts 94°
2026-04-28 16:05 47.72246 9.36236 2730 ft 104 kts 97°
2026-04-28 16:05 47.72091 9.37303 2700 ft 101 kts 96°
2026-04-28 16:05 47.71949 9.38328 2743 ft 103 kts 94°
2026-04-28 16:05 47.71822 9.39372 2750 ft 103 kts 94°
2026-04-28 16:06 47.71687 9.40426 2660 ft 103 kts 97°
2026-04-28 16:06 47.71476 9.41389 2578 ft 91 kts 107°
2026-04-28 16:06 47.71143 9.42123 2623 ft 86 kts 128°
2026-04-28 16:06 47.70827 9.42499 2583 ft 89 kts 136°
2026-04-28 16:07 47.70315 9.42998 2578 ft 88 kts 139°
2026-04-28 16:07 47.69799 9.43455 2585 ft 80 kts 139°
2026-04-28 16:07 47.68876 9.44181 2492 ft 71 kts 143°
2026-04-28 16:08 47.68433 9.44518 2498 ft 73 kts 142°
2026-04-28 16:08 47.67988 9.44883 2486 ft 73 kts 142°
2026-04-28 16:08 47.67533 9.45246 2472 ft 75 kts 141°
2026-04-28 16:09 47.66702 9.46069 2438 ft 69 kts 135°
2026-04-28 16:09 47.66327 9.46506 2367 ft 71 kts 124°
2026-04-28 16:09 47.66094 9.47138 2223 ft 68 kts 99°
2026-04-28 16:10 47.66127 9.48404 1786 ft 61 kts 71°
2026-04-28 16:10 47.66308 9.49019 1566 ft 67 kts 57°
2026-04-28 16:10 47.66765 9.50202 1351 ft 51 kts 56°
2026-04-28 16:11 47.67004 9.50816 1346 ft 23 kts 59°
2026-04-28 16:11 47.67125 9.51128 1354 ft 12 kts 61°
2026-04-28 16:12 47.67069 9.51307 1352 ft 12 kts 142°
2026-04-28 16:12 47.67042 9.51391 1353 ft 8 kts 68°
2026-04-28 16:13 47.67108 9.51562 1357 ft 12 kts 59°
2026-04-28 16:13 47.67159 9.51691 1358 ft 17 kts 60°
2026-04-28 16:13 47.67244 9.51962 1361 ft 9 kts 101°
2026-04-28 16:14 47.67218 9.51996 1361 ft 0 kts 178°